カタログに戻る

FENGYUN 1C DEB

LostLEO
NORAD 31963·DEBRIS·🇨🇳 China

打ち上げ May 10, 1999 から Taiyuan Satellite Launch Center

Loading…

次のパス (今後24時間)

TLE

古いSource: Space-Track

元期: Aug 10, 2024, 04:22 UTC

1 31963U 99025CNQ 24223.18208134  .00050328  00000-0  13089-1 0  9997
2 31963 101.6969 347.2074 0248796  63.5850 299.0626 14.32533034865467

AllMySatでFENGYUN 1C DEBをリアルタイム追跡

Download on the App Store